Date,TemperatureHighF,TemperatureAvgF,TemperatureLowF,DewpointHighF,DewpointAvgF,DewpointLowF,HumidityHigh,HumidityAvg,HumidityLow,PressureMaxIn,PressureMinIn,WindSpeedMaxMPH,WindSpeedAvgMPH,GustSpeedMaxMPH,PrecipitationSumIn
2013-1-1,80.4,65.0,52.7,61.9,57.0,52.2,99,78,47,30.13,29.96,11,2,11,0.00
2013-1-2,83.5,68.2,56.8,67.2,61.9,56.4,99,82,52,30.02,29.92,10,1,10,0.00
2013-1-3,76.1,65.3,58.3,66.8,62.2,55.0,99,90,71,30.13,29.95,14,3,14,0.07
2013-1-4,58.6,56.7,53.8,58.4,56.3,53.0,99,99,97,30.20,30.08,12,4,12,0.21
2013-1-5,77.7,62.6,52.9,62.1,56.5,50.9,99,82,57,30.22,30.14,14,4,14,0.01
2013-1-6,83.3,68.9,60.3,67.5,62.6,57.8,99,82,57,30.15,30.03,17,3,17,0.00
2013-1-7,72.3,62.9,55.4,62.0,57.9,51.3,98,85,58,30.17,30.06,19,5,19,0.07
2013-1-8,84.2,70.9,62.2,71.3,66.6,61.7,99,87,59,30.19,30.06,13,4,13,0.01
2013-1-9,83.3,73.4,66.2,72.4,69.3,65.9,99,88,67,30.27,30.14,13,4,13,0.00
2013-1-10,84.6,72.4,65.3,72.2,65.9,61.9,99,82,48,30.28,30.21,21,6,21,0.00
2013-1-11,84.6,72.0,62.1,69.9,64.9,61.5,99,81,47,30.23,30.11,16,5,16,0.00
2013-1-12,86.2,71.6,61.2,71.3,63.7,60.0,99,79,45,30.17,30.06,15,4,15,0.00
2013-1-13,85.8,72.1,61.9,67.7,63.8,59.6,99,78,45,30.13,30.02,16,4,16,0.00
2013-1-14,85.1,71.8,62.2,67.8,64.0,61.7,99,79,47,30.17,30.08,14,4,14,0.00
2013-1-15,83.1,73.4,63.3,68.8,65.2,61.8,99,77,51,30.12,30.03,13,5,13,0.00
2013-1-16,85.6,71.9,61.5,67.9,62.4,57.5,99,75,44,30.09,29.97,10,2,10,0.00
2013-1-17,81.9,64.8,52.7,69.4,57.1,44.7,97,77,58,29.98,29.89,25,8,25,0.00
2013-1-18,67.3,54.6,40.6,59.6,46.4,34.2,95,74,64,30.17,29.98,22,6,22,0.00
2013-1-19,76.8,64.2,55.0,60.5,56.5,51.2,91,77,55,30.20,30.06,23,6,23,0.00
2013-1-20,75.6,63.5,58.6,64.2,58.2,52.8,99,84,62,30.08,29.98,13,4,13,0.02
2013-1-21,78.1,66.1,60.6,60.1,57.0,54.9,86,73,53,30.02,29.92,11,2,11,0.00
2013-1-22,65.1,58.0,49.1,55.4,43.5,33.0,85,60,35,30.15,29.95,14,4,14,0.00
2013-1-23,72.0,56.1,43.5,45.2,38.1,25.2,88,56,19,30.25,30.12,13,3,13,0.00
2013-1-24,75.9,59.4,45.5,53.3,47.6,44.2,96,69,36,30.22,30.09,14,3,14,0.00
2013-1-25,79.2,63.3,51.6,58.2,51.3,47.0,99,70,35,30.22,30.09,8,2,8,0.00
2013-1-26,78.3,62.5,49.3,58.8,53.1,48.1,99,74,43,30.17,30.05,11,2,11,0.00
2013-1-27,82.2,65.8,53.6,64.4,58.2,52.8,99,79,43,30.24,30.11,20,4,20,0.00
2013-1-28,79.0,70.5,62.6,64.3,62.8,60.3,94,78,56,30.29,30.18,17,7,17,0.00
2013-1-29,85.6,72.4,64.0,70.6,65.2,61.7,99,80,46,30.18,30.03,18,6,18,0.00
2013-1-30,86.2,74.3,64.8,66.9,64.3,61.4,99,73,46,30.05,29.82,21,6,21,0.00
2013-1-31,71.2,59.0,47.5,65.8,40.7,21.7,98,57,22,30.10,29.81,23,6,23,0.08
2013-2-1,72.9,54.9,42.4,39.5,29.6,16.3,67,43,12,30.25,30.08,14,4,14,0.00
2013-2-2,75.0,57.3,41.4,46.5,39.2,32.6,83,55,24,30.19,30.03,11,2,11,0.00
2013-2-3,71.6,57.5,44.1,50.2,42.6,34.0,93,60,35,30.06,29.95,17,4,17,0.00
2013-2-4,74.3,57.3,43.5,48.2,38.8,25.0,97,58,17,30.02,29.93,13,2,13,0.00
2013-2-5,50.0,47.0,43.7,44.9,42.7,39.5,91,85,76,29.94,29.84,4,1,4,0.00
2013-2-6,70.3,66.1,61.0,60.2,58.5,56.8,86,77,69,30.00,29.93,6,3,6,0.00
2013-2-9,76.8,66.6,54.1,57.2,54.8,53.1,97,67,46,30.00,29.92,17,6,17,0.00
2013-2-10,80.4,67.3,57.4,59.3,56.5,53.1,89,70,44,30.07,29.94,23,8,23,0.00
2013-2-11,85.5,72.4,59.9,64.1,60.6,57.9,95,69,44,30.02,29.88,18,4,18,0.00
2013-2-12,87.6,74.7,63.3,68.4,64.0,61.0,98,72,43,29.91,29.73,12,3,12,0.00
2013-2-13,88.2,73.7,63.5,70.0,66.2,59.8,98,80,46,29.75,29.61,22,5,22,0.21
2013-2-14,67.3,62.2,56.1,62.8,59.4,55.9,99,91,72,29.85,29.68,14,3,14,0.18
2013-2-15,73.0,58.6,51.6,57.9,53.5,51.1,99,85,55,29.83,29.73,13,4,13,0.02
2013-2-16,69.3,57.2,48.7,53.0,42.9,20.9,97,63,24,29.85,29.65,28,7,28,0.00
2013-2-17,56.7,45.1,35.2,26.9,17.6,11.9,53,35,19,30.03,29.84,21,7,21,0.00
2013-2-19,81.0,73.7,62.6,56.7,53.9,50.5,81,52,36,29.93,29.81,15,4,15,0.00
2013-2-20,78.4,65.2,59.2,59.5,55.4,51.2,94,72,48,29.90,26.83,15,4,15,0.00
2013-2-21,86.9,70.5,57.0,66.2,59.0,51.1,90,69,39,29.89,29.75,14,4,14,0.00
2013-2-22,90.0,74.9,64.0,70.1,66.0,58.4,99,77,35,29.86,29.75,18,5,18,0.00
2013-2-23,91.2,77.0,70.3,69.4,66.8,61.2,93,73,42,29.77,29.62,17,5,17,0.00
2013-2-24,76.1,70.1,65.3,72.5,67.9,64.2,98,93,81,29.73,29.60,13,3,13,0.07
2013-2-25,88.2,73.4,64.0,72.2,66.3,61.2,99,82,44,29.69,29.52,12,3,12,0.08
2013-2-26,76.8,71.1,64.8,71.7,67.7,60.6,98,89,74,29.61,29.48,17,5,17,0.30
2013-2-27,77.7,66.3,55.9,62.7,55.4,49.7,94,70,43,29.75,29.60,14,4,14,0.00
2013-2-28,75.6,61.8,50.7,53.2,48.8,40.2,95,66,32,29.77,29.64,17,5,17,0.00
2013-3-1,67.5,56.2,48.9,48.8,39.7,29.2,86,57,29,29.74,29.60,17,5,17,0.00
2013-3-2,60.8,51.5,42.6,37.3,32.5,21.3,65,50,23,29.76,29.66,28,7,28,0.00
2013-3-3,54.9,44.8,37.4,32.3,30.7,28.9,75,59,41,29.80,29.63,24,6,24,0.00
2013-3-4,69.3,48.2,35.4,39.7,30.3,18.7,86,56,15,29.93,29.75,13,3,13,0.00
2013-3-5,80.6,62.5,44.8,57.2,43.3,35.7,93,55,23,29.91,29.72,16,3,16,0.00
2013-3-6,70.2,60.2,48.9,61.7,39.5,22.5,93,52,19,29.83,29.62,23,7,23,0.00
2013-3-7,72.0,54.1,39.7,47.5,38.4,31.6,91,58,31,29.95,29.78,14,4,14,0.00
2013-3-8,78.1,59.0,43.5,48.8,42.9,23.0,98,64,14,29.97,29.83,14,3,14,0.00
2013-3-9,78.4,61.4,46.9,53.5,49.0,44.4,96,68,32,29.99,29.83,18,4,18,0.00
2013-3-10,80.1,65.8,53.6,57.3,54.4,51.0,97,70,38,29.94,29.83,24,7,24,0.00
2013-3-11,81.9,68.3,56.3,61.6,57.1,53.6,94,70,42,29.87,29.69,18,6,18,0.00
2013-3-12,72.0,67.7,65.1,69.1,64.1,60.5,99,89,75,29.70,29.60,18,6,18,0.14
2013-3-13,77.9,65.7,49.5,45.3,35.9,21.5,84,39,14,30.05,29.92,16,6,16,0.00
2013-3-14,71.1,57.3,45.9,44.2,32.8,18.5,76,45,14,30.14,29.99,17,6,17,0.00
2013-3-15,76.1,57.8,42.1,49.0,37.2,24.5,98,55,19,30.16,30.02,13,3,13,0.00
2013-3-16,84.0,64.9,48.0,51.2,43.5,37.1,94,54,21,30.07,29.96,11,2,11,0.00
2013-3-17,81.5,66.4,50.4,59.7,51.9,43.5,93,63,35,30.04,29.92,14,3,14,0.00
2013-3-18,82.8,72.8,64.4,65.8,62.1,58.4,87,70,51,29.98,29.81,14,4,14,0.01
2013-3-19,90.5,74.9,64.2,65.1,61.9,56.5,98,68,33,29.93,29.77,14,4,14,0.00
2013-3-20,77.9,67.2,58.3,68.7,62.4,57.2,99,85,64,30.01,29.72,24,4,24,0.59
2013-3-21,72.7,60.1,49.1,58.0,40.2,18.3,99,58,13,30.06,29.95,17,4,17,0.01
2013-3-22,82.0,62.4,47.3,61.9,49.8,40.8,95,69,30,30.11,29.97,18,4,18,0.08
2013-3-23,87.3,73.1,63.1,74.1,67.1,61.7,99,83,56,30.09,29.91,17,4,17,0.15
2013-3-24,84.2,72.8,64.9,73.9,69.3,64.4,98,89,63,29.97,29.75,26,6,26,0.50
2013-3-25,74.1,65.5,54.3,67.1,44.3,17.0,96,55,12,30.13,29.83,21,6,21,0.01
2013-3-26,62.2,53.6,45.7,39.4,27.6,18.5,65,39,19,30.30,30.11,21,7,21,0.00
2013-3-27,65.7,51.9,40.3,41.4,30.6,22.1,76,49,20,30.40,30.24,19,5,19,0.00
2013-3-28,75.6,57.3,41.4,44.8,35.2,19.9,88,52,14,30.40,30.25,14,4,14,0.00
2013-3-29,53.1,49.5,46.4,45.9,44.5,42.9,88,83,71,30.36,30.30,2,1,2,0.00
2013-4-2,88.3,77.8,65.5,63.7,54.7,46.5,85,47,27,29.96,29.81,17,7,17,0.00
2013-4-3,87.4,72.4,62.2,68.9,62.8,54.9,98,75,45,29.91,29.81,21,6,21,0.22
2013-4-4,76.1,70.5,67.1,70.4,67.6,63.6,99,91,76,29.86,29.69,24,4,24,0.09
2013-4-5,76.3,68.6,65.8,69.0,65.1,63.5,97,89,72,29.98,29.63,16,3,16,0.07
2013-4-6,80.4,70.4,55.0,59.2,57.2,53.4,94,65,43,30.07,29.92,21,7,21,0.00
2013-4-7,83.7,69.2,57.2,65.0,58.9,54.8,99,73,41,30.11,29.96,20,6,20,0.00
2013-4-8,86.4,72.7,60.6,66.5,61.2,57.5,99,71,39,30.08,29.81,21,6,21,0.00
2013-4-9,86.2,74.1,64.6,68.5,62.5,55.4,99,71,43,29.93,29.81,22,7,22,0.00
2013-4-10,89.4,75.1,61.7,71.0,65.1,61.0,99,74,41,29.88,29.74,20,6,20,0.00
2013-4-11,91.2,79.1,70.9,72.7,70.6,66.6,98,78,45,29.77,29.55,24,8,24,0.00
2013-4-12,87.3,79.0,74.3,73.8,71.4,68.3,94,78,56,29.64,29.56,17,5,17,0.00
2013-4-13,89.6,76.8,68.5,71.6,66.6,57.6,96,73,45,29.75,29.59,17,4,17,0.00
2013-4-14,90.0,74.6,66.4,75.0,67.6,61.8,99,80,53,29.75,29.59,40,6,40,1.15
2013-4-15,93.4,76.9,65.7,68.0,65.0,61.6,99,70,41,29.83,29.64,22,4,22,0.00
2013-4-16,89.8,76.8,68.2,72.3,68.2,64.1,99,77,48,29.93,29.80,21,7,21,0.00
2013-4-17,86.9,74.5,65.5,72.7,66.5,62.3,99,79,46,29.90,29.80,21,6,21,0.00
2013-4-18,94.6,78.6,67.1,72.4,67.4,61.6,99,73,38,29.82,29.70,18,6,18,0.00
2013-4-19,94.3,80.3,73.0,74.8,71.2,65.5,96,76,44,29.79,29.64,21,5,21,0.05
2013-4-20,76.3,68.1,60.1,71.9,62.9,56.3,95,84,63,29.90,29.69,15,5,15,0.00
2013-4-21,80.6,69.1,60.1,72.2,65.9,56.5,99,90,69,29.88,29.80,19,5,19,1.29
2013-4-22,79.3,70.6,66.9,70.4,67.9,65.6,99,92,67,29.83,29.74,22,5,22,0.12
2013-4-23,83.8,70.8,62.1,67.1,61.6,55.7,98,76,41,29.87,29.74,14,6,14,0.00
2013-4-24,90.3,78.2,57.2,65.9,61.4,56.9,99,59,36,29.91,29.80,18,6,18,0.00
2013-4-25,93.0,77.3,63.5,68.4,62.5,56.7,99,65,32,29.97,29.83,14,3,14,0.00
2013-4-26,90.7,77.2,66.0,68.3,64.9,61.9,97,69,41,30.01,29.88,18,4,18,0.00
2013-4-27,85.6,75.6,66.9,69.8,65.5,60.9,98,74,45,29.98,29.89,21,7,21,0.00
2013-4-28,84.2,74.7,66.7,69.4,65.1,60.7,96,74,47,29.91,29.78,27,8,27,0.00
2013-4-29,90.5,77.3,68.2,71.8,65.0,58.4,99,70,35,29.81,29.63,17,5,17,0.43
2013-4-30,82.4,76.2,67.5,72.0,68.4,67.2,99,79,62,29.76,29.66,10,4,10,0.18
2013-5-1,82.4,82.4,82.4,68.1,68.1,68.1,62,62,62,29.75,29.75,5,5,8,0.00
2013-5-3,82.6,74.7,67.8,72.2,68.7,66.1,99,82,62,29.95,29.81,28,10,28,2.61
2013-5-4,86.4,74.8,68.0,73.1,68.7,66.5,99,83,53,29.93,29.79,24,5,27,0.02
2013-5-5,81.0,71.0,61.5,68.3,53.3,40.3,98,59,25,30.06,29.89,17,6,17,0.00
2013-5-6,80.1,69.8,61.5,62.0,55.5,49.0,88,62,38,30.15,30.00,17,4,17,0.00
2013-5-7,82.4,69.4,56.8,62.1,56.2,53.2,96,66,39,30.20,30.07,17,4,17,0.00
2013-5-8,87.3,73.2,61.2,63.8,59.9,55.4,96,67,37,30.29,30.14,15,3,15,0.00
2013-5-9,90.5,75.5,61.7,66.4,61.4,55.0,98,66,31,30.31,30.20,16,4,16,0.00
2013-5-10,96.1,78.4,66.6,73.8,68.3,63.8,98,75,36,30.26,30.12,17,5,17,0.19
2013-5-11,94.3,79.2,69.6,75.0,69.6,64.7,98,75,45,30.21,30.12,19,3,19,0.00
2013-5-12,91.4,82.6,69.4,72.7,66.6,64.2,93,62,43,30.20,30.09,17,6,17,0.00
2013-5-13,90.9,81.3,66.4,65.3,59.1,47.6,83,49,30,30.12,29.92,19,8,19,0.00
2013-5-14,88.3,72.3,57.6,58.9,53.0,43.3,90,57,23,30.11,30.00,17,5,17,0.00
2013-5-15,88.3,77.4,61.7,65.4,58.3,53.3,96,55,32,30.12,29.97,17,6,17,0.00
2013-5-16,90.7,77.1,66.6,65.0,62.1,56.9,88,63,33,30.04,29.90,19,6,19,0.00
2013-5-17,94.3,78.4,66.4,69.5,65.2,61.3,94,67,36,30.02,29.92,21,6,21,0.00
2013-5-18,97.5,81.1,70.0,72.7,68.7,61.2,94,70,32,30.00,29.88,17,6,21,0.00
2013-5-19,94.6,78.7,72.5,74.0,71.3,67.7,97,80,45,29.99,29.87,19,6,19,0.02
2013-5-20,94.6,78.1,69.4,73.6,70.5,64.9,98,81,43,29.99,29.87,24,5,24,0.65
2013-5-21,82.8,74.5,70.9,73.2,71.1,69.3,98,89,71,29.95,29.83,14,5,14,0.02
2013-5-22,93.9,76.6,69.8,75.7,71.5,67.1,99,86,45,29.86,29.78,24,4,24,0.66
2013-5-23,95.0,78.7,69.8,75.8,70.7,66.2,99,80,44,29.90,29.79,15,3,15,0.12
2013-5-24,96.1,81.6,70.9,76.0,68.1,61.2,99,69,34,29.95,29.83,15,4,15,0.01
2013-5-25,88.5,77.9,68.9,71.6,64.4,58.3,97,66,38,30.07,29.93,20,6,20,0.00
2013-5-26,69.8,68.2,62.8,64.1,62.8,58.8,91,83,72,30.05,30.00,7,2,8,0.00
2013-5-27,69.4,69.4,69.4,64.1,64.1,64.1,83,83,83,30.05,30.05,2,2,3,0.00
2013-5-28,90.7,77.7,69.4,72.0,67.3,64.1,88,72,48,30.05,29.84,23,8,23,0.00
2013-5-29,88.3,78.6,72.5,75.4,72.1,68.5,96,81,53,29.91,29.83,24,9,24,0.01
2013-5-30,88.3,78.4,72.3,75.0,72.0,67.2,98,82,51,29.90,29.81,30,10,30,0.06
2013-5-31,88.3,78.6,72.0,75.4,71.0,68.3,93,78,54,29.89,29.80,26,10,26,0.00
2013-6-1,89.1,79.5,72.7,75.4,73.2,71.4,97,82,58,29.85,29.74,24,9,24,0.00
2013-6-2,98.8,80.5,73.9,77.4,74.3,71.0,99,84,42,29.78,29.63,18,4,18,0.97
2013-6-3,95.0,80.5,73.9,78.4,74.4,71.3,99,84,48,29.78,29.65,14,2,14,0.04
2013-6-4,93.0,78.4,71.6,75.3,72.8,69.5,98,85,50,29.81,29.70,14,2,14,0.18
2013-6-5,91.6,75.7,72.0,77.0,73.4,70.7,99,93,54,29.79,29.70,24,3,24,0.50
2013-6-6,79.9,75.3,72.3,77.5,73.7,69.3,99,95,74,29.71,29.43,23,8,23,1.54
2013-6-7,93.4,84.5,77.2,75.9,72.8,70.6,91,69,50,29.71,29.63,13,3,13,0.00
2013-6-8,93.0,77.8,70.3,78.6,72.9,68.4,98,86,52,29.88,29.70,25,3,25,1.25
2013-6-9,94.5,80.6,70.7,77.4,72.9,68.8,99,79,49,29.93,29.81,19,6,19,0.00
2013-6-10,98.4,81.3,72.1,78.5,73.7,69.7,99,81,42,29.88,29.78,16,4,16,0.74
2013-6-11,95.0,77.2,72.5,77.6,74.0,70.6,99,91,49,29.93,29.81,23,3,23,0.40
2013-6-12,99.5,83.7,71.2,78.0,72.4,66.9,99,73,36,29.93,29.79,17,3,17,0.01
2013-6-13,98.4,85.4,74.7,76.9,72.7,69.7,94,68,43,29.82,29.69,13,3,13,0.00
2013-6-14,95.2,84.5,75.9,75.5,72.3,65.5,94,69,44,29.74,29.63,15,4,15,0.00
2013-6-15,91.8,82.6,77.9,76.6,74.2,71.2,93,77,56,29.88,29.71,23,8,23,0.00
2013-6-16,94.5,82.2,78.3,79.8,75.0,72.5,89,79,51,29.92,29.82,21,7,21,0.19
2013-6-17,93.4,80.8,73.9,81.4,75.8,70.5,99,86,54,29.92,29.80,21,5,21,0.92
2013-6-18,98.4,79.0,73.9,76.6,71.9,70.5,93,81,43,29.93,29.86,12,8,18,1.05
2013-6-19,97.5,84.1,75.2,81.6,74.6,70.6,96,75,46,29.96,29.84,17,2,17,0.43
2013-6-20,98.4,81.6,73.2,78.7,73.3,68.0,98,78,42,30.02,29.91,21,3,21,0.18
2013-6-21,97.0,78.5,70.9,78.4,72.6,70.1,99,85,43,30.02,29.95,23,3,23,1.88
2013-6-22,96.8,81.0,71.6,78.0,72.9,67.6,99,80,41,30.07,29.98,14,4,14,0.02
2013-6-23,94.5,81.3,73.4,77.9,74.4,70.0,99,81,46,30.11,30.01,20,5,20,0.05
2013-6-24,96.1,83.5,75.2,76.5,73.1,69.3,96,73,45,30.12,30.00,16,6,16,0.00
2013-6-25,95.5,83.8,74.1,76.1,72.9,67.1,97,72,43,30.09,27.04,22,6,22,0.00
2013-6-26,101.3,83.1,76.6,77.5,73.7,69.2,95,75,39,30.04,29.92,25,5,25,0.00
2013-6-27,97.3,83.7,73.6,75.0,72.6,69.7,97,72,43,29.98,29.84,14,2,14,0.00
2013-6-28,97.9,82.7,75.0,80.8,74.5,71.2,97,79,44,29.88,26.80,21,3,21,0.38
2013-6-29,94.1,82.9,75.6,78.2,74.1,67.4,96,77,49,29.81,29.73,17,4,17,0.00
2013-6-30,95.5,78.9,73.8,78.0,74.5,13.1,98,87,50,29.82,29.74,17,3,17,0.52
2013-7-1,88.7,77.2,73.8,75.3,73.4,70.0,98,89,62,29.97,29.81,15,4,15,0.24
2013-7-2,85.5,77.3,73.4,78.6,74.5,73.0,99,91,72,30.04,29.92,21,5,21,0.13
2013-7-3,90.0,78.1,73.0,79.5,74.9,71.3,99,90,62,30.08,29.95,20,5,20,0.37
2013-7-4,93.6,79.3,71.1,78.7,73.5,69.2,99,85,50,30.11,30.01,31,6,31,0.64
2013-7-5,92.5,81.2,73.0,78.7,73.9,68.2,99,80,47,30.11,29.95,29,8,29,0.02
2013-7-6,94.1,83.4,74.3,76.2,73.5,69.4,97,74,46,30.06,29.98,23,9,23,0.00
2013-7-7,93.9,83.4,75.4,77.1,73.7,68.5,97,75,47,30.10,29.98,21,7,21,0.01
2013-7-8,93.9,84.0,75.6,77.7,74.1,70.0,98,74,47,30.11,30.01,21,7,21,0.00
2013-7-9,95.0,83.7,74.8,77.4,72.5,67.6,98,72,43,30.11,29.97,18,6,18,0.00
2013-7-10,94.5,83.5,74.5,76.5,73.3,69.4,97,74,46,30.02,29.84,20,5,20,0.34
2013-7-11,97.2,83.0,78.1,77.9,74.0,70.0,91,76,42,29.93,29.83,15,4,15,0.05
2013-7-12,94.3,81.3,75.0,77.7,74.3,71.6,97,80,50,29.88,29.76,17,3,17,0.01
2013-7-13,98.4,81.2,73.9,75.1,73.0,69.9,96,78,42,29.91,29.77,23,5,23,0.00
2013-7-14,94.3,79.0,72.7,76.6,73.4,71.1,98,84,49,30.00,29.88,24,7,24,0.00
2013-7-15,90.3,81.2,71.8,75.7,73.0,70.9,99,78,55,30.01,29.93,21,9,21,0.00
2013-7-16,86.7,85.6,83.8,74.3,73.3,72.0,73,67,63,29.93,29.93,20,16,20,0.00
2013-7-17,93.0,83.7,75.7,78.3,74.2,70.6,97,75,49,29.93,29.85,33,9,33,0.37
2013-7-18,88.2,79.3,73.2,77.8,73.5,69.7,99,84,57,29.91,29.79,21,4,21,0.00
2013-7-19,95.4,79.4,72.9,75.4,72.9,70.2,99,83,48,29.91,29.76,27,4,30,2.14
2013-7-20,74.3,73.9,72.9,73.7,73.3,72.0,99,98,97,29.87,29.82,8,4,8,0.00
2013-7-21,74.3,74.3,74.3,73.7,73.7,73.7,98,98,98,29.83,29.83,4,4,5,0.00
2013-7-22,97.2,80.2,74.3,78.2,74.7,71.3,98,86,45,29.96,29.83,14,4,16,0.30
2013-7-23,86.7,77.7,74.1,79.2,75.0,72.1,99,92,73,29.92,29.75,17,2,17,0.12
2013-7-24,88.9,80.6,75.6,79.0,75.8,72.6,99,86,64,29.82,29.70,18,4,18,0.11
2013-7-25,89.1,80.8,74.1,77.7,75.7,73.3,99,85,64,29.80,29.69,15,3,15,0.06
2013-7-26,97.7,83.9,74.8,79.0,75.4,71.5,99,78,44,29.83,29.72,13,3,14,0.06
2013-7-27,97.5,83.4,76.3,79.4,75.3,71.8,99,79,46,29.81,29.73,21,4,21,0.00
2013-7-28,97.5,79.7,71.2,78.6,74.0,69.7,99,85,42,29.90,29.75,37,3,37,0.65
2013-7-29,99.1,81.7,73.2,78.7,74.9,70.7,99,83,42,29.98,29.86,23,3,23,0.06
2013-7-30,99.5,85.3,76.3,79.6,75.2,70.5,99,75,40,30.00,29.80,21,5,21,0.00
2013-7-31,98.4,83.7,77.5,78.9,75.6,70.4,96,78,44,29.87,29.72,23,4,23,0.15
2013-8-1,97.9,80.5,74.8,77.9,74.6,69.5,99,85,40,29.82,29.67,24,3,24,0.05
2013-8-2,97.5,83.6,74.1,80.0,74.0,69.7,99,76,42,29.97,29.67,18,4,18,0.20
2013-8-3,96.6,82.0,75.2,79.4,74.9,71.7,99,81,46,30.04,29.92,17,3,17,0.41
2013-8-4,93.9,82.0,75.2,81.4,76.4,73.2,99,84,54,30.05,29.93,16,2,16,0.01
2013-8-5,97.9,82.4,76.1,81.8,77.1,73.2,97,85,48,29.96,29.81,19,3,24,0.19
2013-8-6,98.6,83.4,74.8,78.9,76.0,72.2,99,81,45,29.94,29.83,18,4,18,0.00
2013-8-7,97.5,84.8,77.9,79.4,76.3,72.5,97,78,46,29.98,29.86,17,5,17,0.00
2013-8-8,98.6,85.0,77.7,80.0,75.5,70.7,95,75,43,30.01,29.91,18,6,18,0.09
2013-8-9,98.4,85.1,77.0,78.6,74.4,69.6,96,73,42,30.05,29.94,23,6,23,0.00
2013-8-10,98.6,86.0,75.6,77.2,73.7,70.0,94,69,41,30.12,30.02,19,6,19,0.00
2013-8-11,100.6,86.4,77.2,79.9,74.7,69.4,97,71,39,30.15,30.06,16,5,16,0.00
2013-8-12,97.5,85.9,76.8,77.4,73.9,68.5,96,70,44,30.10,29.97,15,5,15,0.00
2013-8-13,101.7,87.7,76.8,77.1,73.4,66.6,94,66,35,30.03,29.91,13,3,14,0.00
2013-8-14,100.4,84.0,77.9,78.7,74.9,71.6,92,76,42,29.99,29.86,16,2,17,0.01
2013-8-15,100.6,86.7,76.5,77.4,73.9,66.2,96,69,34,29.99,29.88,16,4,16,0.22
2013-8-16,98.2,82.8,76.1,79.6,75.8,70.9,98,82,44,30.04,29.91,14,3,14,0.07
2013-8-17,98.2,83.4,75.9,81.3,76.8,72.7,99,83,46,30.07,29.97,16,4,21,0.07
2013-8-18,94.3,84.4,77.4,78.9,75.4,71.6,97,76,49,30.10,29.99,22,7,61,0.00
2013-8-19,95.7,83.1,77.4,79.9,75.8,71.7,97,80,49,30.07,29.93,21,4,21,0.00
2013-8-20,97.9,85.5,77.4,79.1,74.7,68.9,97,73,42,30.07,29.95,22,6,22,0.00
2013-8-21,95.7,81.8,74.5,78.9,76.1,72.8,99,85,48,30.10,30.00,33,6,33,0.67
2013-8-22,91.6,80.0,77.4,80.5,76.8,73.4,99,90,62,30.09,29.96,16,4,16,0.01
2013-8-23,94.5,79.4,71.8,81.3,76.1,69.4,99,91,54,30.03,29.92,23,3,23,2.54
2013-8-24,97.9,80.1,74.7,83.3,75.6,72.5,99,88,45,30.12,29.98,24,3,24,0.05
2013-8-25,91.4,79.9,73.9,78.6,75.0,72.0,99,86,61,30.20,30.08,21,4,21,0.01
2013-8-26,92.5,80.8,73.9,79.5,75.0,72.7,99,84,55,30.18,29.96,22,5,22,0.05
2013-8-27,92.5,81.7,73.6,76.2,70.9,65.7,99,73,44,30.04,29.94,18,6,18,0.00
2013-8-28,95.2,82.4,72.1,75.8,69.7,65.5,98,68,41,30.04,29.91,15,4,15,0.00
2013-8-29,97.2,84.1,73.8,75.1,71.7,67.9,96,69,40,30.01,29.90,14,3,14,0.00
2013-8-30,100.9,85.0,75.6,77.3,73.5,69.6,94,71,38,29.98,29.85,15,3,15,0.00
2013-8-31,98.2,83.2,73.9,77.1,73.8,70.5,97,76,42,29.97,29.87,16,3,16,0.31
2013-9-1,97.9,81.8,73.0,77.1,73.4,70.0,98,79,43,30.00,29.89,29,3,30,0.07
2013-9-2,97.7,82.5,73.4,77.3,73.6,70.3,98,77,43,30.04,29.91,15,2,17,0.00
2013-9-3,98.2,84.7,74.1,76.9,73.4,69.9,99,72,42,30.02,29.88,11,2,11,0.00
2013-9-4,99.5,83.5,77.2,78.0,73.7,68.3,93,74,42,30.05,29.93,23,3,23,0.01
2013-9-5,97.9,83.1,74.1,80.0,74.7,71.7,95,78,44,30.06,29.95,19,3,19,0.08
2013-9-6,99.9,79.7,71.2,80.3,74.9,68.9,99,87,42,30.04,29.93,28,3,28,1.33
2013-9-7,95.2,79.9,71.8,78.1,72.7,69.3,99,81,45,29.99,29.92,16,4,16,0.00
2013-9-8,95.2,81.4,72.1,76.5,72.5,69.7,99,77,44,29.97,29.86,19,4,19,0.00
2013-9-9,95.2,82.6,73.2,75.4,71.6,65.7,95,72,39,30.02,29.92,19,6,19,0.00
2013-9-10,93.4,82.2,74.8,75.1,71.8,63.2,96,73,40,30.09,29.99,24,7,24,0.00
2013-9-11,93.2,83.0,75.4,75.9,72.5,64.9,96,73,42,30.08,29.94,21,7,21,0.00
2013-9-12,97.0,81.2,74.1,77.9,74.3,70.1,99,82,43,29.99,29.86,21,3,21,0.37
2013-9-13,97.7,83.1,73.0,78.2,72.9,67.3,99,75,42,29.88,29.74,17,2,17,0.01
2013-9-14,98.2,85.2,76.3,77.3,74.0,70.0,96,72,42,29.95,29.81,17,3,17,0.00
2013-9-15,93.9,82.9,77.2,78.9,75.0,69.9,96,78,47,30.06,29.95,26,6,26,0.00
2013-9-16,93.9,82.3,74.7,76.9,73.1,68.7,97,76,45,30.05,29.85,19,6,19,0.00
2013-9-17,92.5,81.6,74.3,77.5,73.5,69.6,98,78,51,29.94,29.78,27,6,27,0.00
2013-9-18,89.8,80.8,74.8,78.9,73.8,70.2,97,81,55,29.89,29.80,24,7,24,0.07
2013-9-19,84.9,84.2,75.0,76.4,74.3,73.4,97,72,70,29.89,29.85,17,11,17,0.00
2013-9-20,92.1,84.4,73.9,74.1,71.0,66.3,90,65,45,29.94,29.78,19,8,19,0.00
2013-9-21,94.8,81.9,71.2,74.3,70.1,65.7,97,70,44,29.86,29.67,14,4,15,0.00
2013-9-22,96.1,79.9,73.6,76.0,73.4,70.5,99,83,46,29.76,29.67,27,2,27,0.66
2013-9-23,87.6,77.2,73.2,78.4,75.4,72.4,99,94,70,29.89,29.75,14,3,14,0.89
2013-9-24,88.0,77.2,72.3,78.4,74.9,71.1,99,93,67,29.89,29.69,14,2,14,0.39
2013-9-25,83.5,77.1,72.9,75.1,73.2,70.7,99,88,68,29.75,29.67,14,3,14,0.01
2013-9-26,93.4,81.6,73.0,78.3,72.8,62.5,98,78,36,29.80,29.69,17,4,17,0.00
2013-9-27,82.2,74.9,69.4,73.4,71.0,68.8,98,88,71,29.89,29.77,16,5,16,0.00
2013-9-28,85.5,76.8,70.5,75.1,70.9,67.3,98,83,60,29.95,29.83,18,5,18,0.00
2013-9-29,93.6,78.3,69.8,73.2,69.1,63.5,97,76,39,29.94,29.84,17,4,17,0.00
2013-9-30,92.8,78.7,69.1,73.9,69.7,63.7,98,77,42,29.91,29.82,17,4,17,0.00
2013-10-1,91.4,79.4,72.7,74.0,71.0,69.1,95,77,51,29.99,29.89,19,5,19,0.00
2013-10-2,90.5,78.8,70.3,70.8,68.9,67.6,94,74,49,29.99,29.90,14,4,14,0.00
2013-10-3,92.7,79.7,69.8,73.7,69.8,67.0,95,74,45,29.97,29.89,16,4,16,0.00
2013-10-4,95.0,80.5,71.6,76.1,71.4,66.3,98,77,43,29.99,29.88,14,4,15,0.00
2013-10-5,91.8,79.7,71.2,75.2,71.5,67.7,97,78,48,29.97,29.87,18,5,18,0.00
2013-10-6,97.3,79.5,72.1,77.7,72.8,69.3,99,83,42,29.90,29.76,28,3,28,0.51
2013-10-7,88.0,76.9,73.2,78.2,74.0,70.0,99,91,67,29.80,29.64,11,2,11,0.28
2013-10-8,86.7,81.0,73.8,76.9,74.1,73.1,99,81,65,29.79,29.69,12,4,12,0.05
2013-10-9,86.2,76.8,70.0,73.1,69.7,67.2,93,79,65,29.99,29.78,16,8,16,0.00
2013-10-10,90.0,80.4,70.9,68.8,65.9,62.7,84,64,43,29.99,29.82,14,6,14,0.00
2013-10-11,89.4,76.3,65.5,70.0,64.7,61.4,98,71,41,29.91,29.80,13,2,13,0.00
2013-10-12,90.0,77.2,67.8,69.9,64.0,57.6,95,67,34,29.92,29.82,12,3,12,0.00
2013-10-13,81.3,76.7,66.0,67.6,64.1,63.4,93,66,55,29.96,29.86,8,3,8,0.00
2013-10-14,90.0,80.4,70.9,68.8,65.1,62.2,88,61,42,29.96,29.84,15,5,15,0.00
2013-10-15,82.9,73.8,68.5,71.2,68.9,66.1,96,85,66,29.92,29.79,11,3,11,0.00
2013-10-16,91.2,78.9,70.2,74.3,69.2,63.2,98,75,42,29.88,29.79,11,3,11,0.00
2013-10-17,92.7,79.0,71.1,76.3,69.9,63.9,98,77,43,29.88,29.77,11,2,11,0.00
2013-10-18,95.4,80.8,71.4,76.1,70.1,64.7,97,73,42,29.89,29.78,14,4,14,0.00
2013-10-19,95.0,82.2,72.7,74.3,70.6,65.1,95,71,44,29.85,29.77,11,3,11,0.00
2013-10-20,89.8,79.5,74.3,74.2,72.0,69.4,91,79,54,29.88,29.76,17,4,17,0.00
2013-10-21,94.3,79.7,73.8,76.1,72.9,69.5,95,81,50,29.93,29.81,12,3,14,0.11
2013-10-22,93.6,81.0,73.6,76.5,72.1,68.1,97,77,48,29.87,29.74,17,4,17,0.00
2013-10-23,85.5,75.4,67.3,71.0,62.1,50.2,91,66,37,29.95,29.72,17,5,17,0.00
2013-10-24,73.9,65.5,59.2,57.9,53.6,48.1,84,66,53,30.09,29.94,14,4,14,0.00
2013-10-25,83.3,68.5,57.9,58.2,54.5,39.5,91,65,31,30.16,30.05,12,4,12,0.00
2013-10-26,83.8,67.7,55.0,57.5,54.3,47.9,95,67,32,30.15,30.04,12,3,12,0.00
2013-10-27,81.9,67.1,56.1,59.2,54.5,48.0,96,68,32,30.09,29.99,13,4,13,0.00
2013-10-28,87.6,69.8,56.5,63.7,59.0,53.6,96,72,36,30.15,30.01,15,3,15,0.00
2013-10-29,85.3,72.5,62.1,67.6,63.5,58.6,98,76,46,30.15,30.07,22,5,22,0.00
2013-10-30,86.2,74.0,64.9,69.5,65.2,61.4,96,76,47,30.17,30.04,17,4,17,0.00
2013-10-31,89.6,76.4,66.7,70.7,66.6,61.9,97,74,42,30.07,29.92,16,5,17,0.00
2013-11-1,91.4,79.6,70.3,72.9,67.9,62.2,95,70,42,29.95,29.79,14,3,14,0.00
2013-11-2,75.6,69.7,62.4,71.9,66.7,60.9,97,90,80,29.89,29.72,14,2,14,0.41
2013-11-3,62.4,61.9,61.9,61.3,60.7,60.7,96,96,96,29.89,29.88,4,2,4,0.00
2013-11-4,79.7,69.0,61.9,65.2,61.0,54.8,96,78,45,29.95,29.87,29,6,29,0.01
2013-11-5,83.3,73.2,67.8,69.0,66.2,62.5,95,80,51,29.93,29.83,27,9,27,0.06
2013-11-6,82.6,72.8,67.8,70.8,67.6,64.5,96,84,56,29.88,29.58,18,4,20,0.02
2013-11-7,81.7,75.0,67.6,72.3,67.3,66.5,98,79,62,29.94,29.78,9,3,9,0.01
2013-11-8,81.0,80.8,70.9,72.1,66.9,66.7,98,63,62,29.94,29.88,8,4,8,0.00
2013-11-11,77.7,69.9,68.0,66.8,62.6,61.6,80,78,69,29.92,29.92,5,5,5,0.00
2013-11-16,76.5,71.8,67.3,72.5,69.6,66.7,99,93,84,29.95,29.87,14,4,14,0.28
2013-11-17,89.1,76.5,68.2,73.6,69.1,66.7,98,80,49,29.91,29.81,13,4,13,0.00
2013-11-18,85.5,75.8,69.6,73.5,68.7,66.4,97,80,59,29.86,29.73,10,2,10,0.00
2013-11-19,79.9,71.3,64.6,69.2,63.3,55.9,95,78,48,29.80,29.70,12,4,12,0.00
2013-11-20,80.1,71.3,64.0,73.0,66.8,61.4,95,86,67,30.00,29.78,19,5,19,0.02
2013-11-21,78.6,72.2,70.0,71.7,69.1,67.4,95,90,76,30.08,29.98,21,6,21,0.02
2013-11-22,82.0,74.6,70.2,70.6,68.1,64.1,95,81,59,30.09,30.00,21,6,21,0.00
2013-11-23,88.5,77.7,64.8,70.4,65.1,61.2,99,68,42,29.93,29.82,11,3,11,0.05
2013-11-24,72.7,65.5,61.5,66.6,58.3,51.8,95,78,63,30.06,29.84,21,7,21,0.00
2013-11-25,76.1,67.8,61.9,62.0,56.4,52.1,83,67,48,30.07,29.90,27,10,27,0.00
2013-11-26,83.5,74.7,67.1,72.4,68.8,62.3,96,83,65,29.90,29.55,22,7,24,0.15
2013-11-27,75.0,62.3,42.6,71.4,56.0,37.4,95,80,59,30.00,29.50,27,7,27,0.15
2013-11-28,68.4,50.9,36.5,51.3,42.9,31.5,89,75,52,30.14,30.00,14,6,16,0.00
2013-11-29,74.7,59.7,50.2,59.8,53.3,48.0,98,81,58,30.17,30.09,18,7,20,0.00
2013-11-30,79.0,65.6,57.0,64.9,59.9,53.4,99,84,53,30.12,30.00,21,7,21,0.00
2013-12-1,76.1,65.7,61.2,65.4,62.6,60.6,98,90,67,30.01,29.79,14,4,14,0.00
2013-12-2,75.2,64.8,60.3,63.2,58.9,52.5,99,83,49,29.79,29.64,14,3,14,0.00
2013-12-3,81.3,67.8,56.5,61.9,58.2,55.3,98,74,44,29.81,29.70,11,3,11,0.00
2013-12-4,84.7,71.5,62.2,68.0,63.9,59.9,95,79,49,29.91,29.78,11,2,11,0.00
2013-12-5,86.7,73.6,63.1,68.9,65.3,62.3,99,78,47,30.00,29.90,14,4,14,0.00
2013-12-6,88.9,75.7,66.2,72.0,67.8,65.2,99,79,48,30.00,29.91,17,4,17,0.00
2013-12-7,87.8,75.3,66.6,70.4,65.9,60.7,97,75,41,30.06,29.96,10,3,10,0.00
2013-12-8,86.5,74.0,64.2,72.2,66.5,63.4,99,80,47,30.06,29.93,16,4,16,0.00
2013-12-9,88.3,76.9,66.9,71.7,66.7,63.3,98,73,47,30.01,29.91,13,4,13,0.00
2013-12-10,86.4,74.8,64.8,70.7,65.0,60.5,98,74,46,30.01,29.88,14,3,14,0.00
2013-12-11,86.0,70.2,58.3,67.6,61.4,54.3,88,75,50,30.07,29.97,14,4,14,0.00
2013-12-12,72.7,62.2,53.4,60.3,48.5,28.5,99,66,23,30.14,30.01,17,6,17,0.00
2013-12-13,75.9,68.4,60.1,57.7,55.4,52.2,83,64,47,29.93,29.79,21,7,21,0.00
2013-12-14,84.9,67.9,60.4,69.7,62.1,56.2,94,83,59,29.79,29.65,21,5,21,0.00
2013-12-16,68.2,57.7,47.5,50.5,46.4,43.1,90,68,46,29.88,29.80,11,4,11,0.00
2013-12-17,74.1,57.7,45.5,54.0,48.9,43.1,95,75,47,29.91,29.81,11,3,11,0.00
2013-12-18,73.2,57.2,46.0,50.0,44.5,40.3,99,66,34,29.94,29.83,14,3,14,0.00
2013-12-19,78.6,60.9,45.9,59.0,51.7,43.6,95,75,42,29.93,29.84,13,3,13,0.00
2013-12-20,86.2,68.3,54.0,64.2,59.2,53.1,99,76,44,29.87,29.77,14,4,14,0.00
2013-12-21,86.2,75.7,65.3,72.0,68.5,63.1,98,80,53,29.93,29.76,19,7,19,0.00
2013-12-22,87.3,75.9,68.0,72.5,68.9,66.5,99,81,54,29.94,29.87,20,5,20,0.00
2013-12-23,89.6,76.6,68.5,73.6,69.0,65.0,99,79,48,29.97,29.87,13,3,13,0.00
2013-12-24,73.4,64.0,51.6,71.1,53.7,24.6,99,73,23,30.05,29.88,21,6,21,0.13
2013-12-25,75.6,52.9,46.2,55.8,44.6,39.8,89,74,51,30.03,29.95,16,5,16,0.00
2013-12-26,78.3,66.7,56.8,63.7,60.1,56.6,99,81,58,29.95,29.83,15,5,15,0.00
2013-12-27,71.1,64.4,59.2,65.0,61.6,57.5,96,91,80,29.99,29.89,12,5,13,0.00
2013-12-28,76.3,69.9,64.6,72.9,68.0,63.4,99,94,80,29.95,29.74,20,6,20,0.15
2013-12-29,80.4,72.1,65.5,74.8,70.1,65.2,99,93,75,29.75,29.61,18,4,18,0.37
2013-12-30,73.6,62.9,57.9,65.2,57.5,49.2,99,84,51,29.93,29.71,13,4,13,0.00
2013-12-31,72.7,62.2,57.0,55.2,52.2,45.7,91,72,42,30.03,29.89,11,4,11,0.00
2014-1-1,64.8,61.4,58.3,63.6,59.5,54.9,98,94,84,29.97,29.78,12,4,12,0.04
2014-1-2,83.3,68.3,58.6,74.0,66.4,54.2,99,94,66,29.78,29.54,21,4,21,0.27